Weather History for Durango, CO

Change the Weather History Date:

Friday, October 14, 2011

  Actual Average Record
Temperature  
Mean Temperature 54 °F 48 °F  
Max Temperature 73 °F 64 °F 77 °F (1973)
Min Temperature 34 °F 31 °F 21 °F (1975)
Degree Days  
Heating Degree Days 12 17  
Month to date heating degree days 207  
Since 1 July heating degree days 431  
Cooling Degree Days 0 0  
Month to date cooling degree days 0  
Year to date cooling degree days 243  
Growing Degree Days 4 (Base 50)    
Moisture  
Dew Point 30 °F    
Average Humidity 50    
Maximum Humidity 85    
Minimum Humidity 18    
Precipitation  
Precipitation 0.00 in 0.05 in 0.81 in (1987)
Month to date precipitation 0.71  
Year to date precipitation 12.59  
Sea Level Pressure  
Sea Level Pressure 30.06 in    
Wind  
Wind Speed 4 mph (North)    
Max Wind Speed 16 mph    
Max Gust Speed 21 mph    
Visibility 10 miles    
Events      
T = Trace of Precipitation, MM = Missing Value Source: NWS Daily Summary

Daily Weather History Graph

Daily Weather History Graph

Search for Another Location

Airport:

Trip Planner

Search our weather history database for the weather conditions in past years. The results will help you decide how hot, cold, wet, or windy it might be!

Date:

Astronomy

Oct. 14, 2011 Rise Set
Actual Time 7:17 AM MDT 6:35 PM MDT
Civil Twilight 6:51 AM MDT 7:01 PM MDT
Nautical Twilight 6:21 AM MDT 7:32 PM MDT
Astronomical Twilight 5:51 AM MDT 8:02 PM MDT
Moon 7:56 PM MDT (10/14) 9:44 AM MDT (10/14)
Length of Visible Light 12h 10m
Length of Day
11h 18m
Waning Gibbous, 94% of the Moon is Illuminated
Oct 14
Waning Gibbous
Oct 19
Last Quarter
Oct 26
New
Nov 2
First Quarter
Nov 10
Full

Hourly Weather History & Observations

Time (MDT) Temp. Windchill Dew Point Humidity Pressure Visibility Wind Dir Wind Speed Gust Speed Precip Events Conditions
12:53 AM 39.9 °F - 32.0 °F 73% 30.05 in 10.0 mi Calm Calm - N/A   Clear
1:53 AM 39.9 °F 37.8 °F 32.0 °F 73% 30.05 in 10.0 mi NNE 3.5 mph - N/A   Clear
2:53 AM 37.9 °F - 30.9 °F 76% 30.06 in 10.0 mi Calm Calm - N/A   Clear
3:53 AM 37.0 °F - 30.9 °F 79% 30.05 in 10.0 mi Calm Calm - N/A   Clear
4:53 AM 34.0 °F 28.8 °F 30.0 °F 85% 30.06 in 10.0 mi ENE 5.8 mph - N/A   Clear
5:53 AM 37.0 °F 33.3 °F 30.0 °F 76% 30.06 in 10.0 mi North 4.6 mph - N/A   Clear
7:53 AM 37.0 °F 33.3 °F 30.9 °F 79% 30.14 in 10.0 mi East 4.6 mph - N/A   Clear
8:53 AM 43.0 °F 39.5 °F 30.9 °F 62% 30.14 in 10.0 mi East 5.8 mph - N/A   Clear
10:53 AM 55.9 °F - 32.0 °F 40% 30.12 in 10.0 mi East 3.5 mph - N/A   Clear
11:53 AM 61.0 °F - 34.0 °F 36% 30.10 in 10.0 mi Calm Calm - N/A   Clear
2:53 PM 72.0 °F - 27.0 °F 19% 29.99 in 10.0 mi SSW 10.4 mph 18.4 mph N/A   Clear
3:53 PM 73.0 °F - 27.0 °F 18% 29.97 in 10.0 mi SSW 12.7 mph 20.7 mph N/A   Clear
4:53 PM 73.9 °F - 27.0 °F 18% 29.97 in 10.0 mi WSW 15.0 mph - N/A   Clear
5:53 PM 71.1 °F - 27.0 °F 19% 29.99 in 10.0 mi West 16.1 mph - N/A   Clear
6:53 PM 64.9 °F - 28.0 °F 25% 30.04 in 10.0 mi West 13.8 mph - N/A   Clear
7:53 PM 63.0 °F - 28.0 °F 27% 30.08 in 10.0 mi WNW 10.4 mph - N/A   Clear
8:53 PM 57.0 °F - 30.0 °F 36% 30.11 in 10.0 mi Calm Calm - N/A   Clear
9:53 PM 53.1 °F - 28.9 °F 40% 30.10 in 10.0 mi Calm Calm - N/A   Clear
11:53 PM 44.1 °F - 30.9 °F 60% 30.12 in 10.0 mi Calm Calm - N/A   Clear